Location: Newark
(13.8625°N, 100.5144°E)
Time: 00:02:42
(UTC+00:00)

N. Korean satellite - Visible Passes

Search period start: 10 May 2021 00:00
Search period end: 20 May 2021 00:00
Orbit: 451 x 500 km, 97.2° (Epoch: 09 May)

Date Brightness Start Highest point End Pass type
(mag) Time Alt. Az. Time Alt. Az. Time Alt. Az.
10 May 9.0 21:51:20 10° NE 21:53:58 21° E 21:56:38 10° SSE visible
13 May 8.2 22:02:48 10° NNE 22:05:55 34° E 22:09:02 10° SSE visible
14 May 9.6 21:37:20 10° ENE 21:38:49 12° E 21:40:18 10° SE visible
16 May 7.1 22:14:29 10° NNE 22:17:49 57° E 22:21:11 10° S visible
17 May 9.2 21:48:13 10° NE 21:50:44 19° E 21:53:15 10° SSE visible
19 May 6.4 22:26:17 10° N 22:29:41 83° W 22:33:07 10° SSW visible
